Showing default

TIROS 4, 226

Orbit data source: Space-Track

TIROS 4, 226 is a payload satellite owned by GSFC (US) in LEO that was launched on Thu, 08 Feb 1962 UTC via a THOR DELTA launch vehicle from the Air Force Eastern Test Range (AFETR). Payload-class satellites include a variety of spacecraft equipped with specific instruments for various scientific and technological missions. These include communications satellites like Starlink; space stations such as the ISS; scientific satellites like the Hubble; Earth observation satellites from companies like Planet Labs, Umbra, and HawkEye 360; GPS; miniature CubeSats for education and research; and military/defense satellites.

Loading next visibility...
Identifier
226, 1962-002A
Orbit
LEO
Country
Flag of USUS
Related business
Manufacturer
RCA/East Windsor
Mission
Non-operational spacecraft
Bus & Motor
TIROS, Unknown motor
Mass
129 kg wet, 129 kg dry
Launch date (UTC)
1962-02-08 (64 years ago)
Launch vehicle
THOR DELTA
Launch site
Air Force Eastern Test Range (AFETR)
Object type
Payload
Rocket body
Debris
Shape & HBR
Unknown
Radar Cross Section
Medium (>0.1 m² and <1 m²)

Expand to show TLE details & history
Last TLE update: 23 hours ago

TLE from 23 hours ago
0 TIROS 4
1 00226U 62002A   26034.97949189  .00000142  00000-0  83646-4 0  9999
2 00226  48.2946 253.7581 0075898  63.1797 297.6838 14.47122932349156
Epoch: 2026-02-03T23:30Z
TLE epoch observation values (Epoch: 2026-02-03T23:30:28.099Z)
Latitude
-0.00008°
Longitude
126.9883°
Altitude
710.656 km
Speed
7.515 km/s
True Right ascension
16h 55m 01s
True Declination
0° 00' 00"
Sunlit
Object was in daylight at epoch
Visualization orbit readout
Latitude
Unknown
Longitude
Unknown
Altitude
Unknown
Speed
Unknown
Apparent Right ascension
Unknown
Apparent Declination
Unknown
Sunlit
N/A
Visualization observer readout
Local Sidereal Time
00:59:08
Azimuth
Unknown
Elevation
Unknown
Doppler factor
Unknown
Orbital elements
Apogee altitude
790.076 km
Perigee altitude
682.085 km
Semi-major axis
7,114.217 km
Eccentricity
0.00759
Inclination
48.2946°
RAAN
253.7581°
Arg. of periapsis
63.1797°
True anomaly
296.91025°
Mean anomaly
297.6838°
Eccentric anomaly
297.29736°
Mean motion
3.61703 °/min
Orbital period
99.53 mins
BSTAR
0.000083646
Loading maneuver chart data...
Computing Atmospheric mass density...
Loading historical data...
Loading historical data...
Loading historical data...
Loading historical data...
Loading historical data...
Loading historical data...
Loading historical data...
Other satellites on launch #2 in the year 1962 (1962-02-08 UTC)

Documentation

Showing up to 5 results
|